Jackson, TN

8:16 PM CST on November 22, 2019 (GMT -0600)
McKellar-Sipes Regional

Weather History for KMKL - September, 2019

Change the Weather History Date:

Thursday, September 12, 2019

  Actual Average Record
Temperature  
Mean Temperature 82 °F 73 °F  
Max Temperature 96 °F 85 °F 98 °F (1980)
Min Temperature 68 °F 61 °F 47 °F (1968)
Degree Days  
Heating Degree Days 0 0  
Month to date heating degree days 0 0  
Since 1 July heating degree days 0 0  
Cooling Degree Days 17 8  
Month to date cooling degree days 158 118  
Year to date cooling degree days 1619 1541  
Growing Degree Days 32 (Base 50)    
Moisture  
Dew Point 71 °F    
Average Humidity 74    
Maximum Humidity 97    
Minimum Humidity 46    
Precipitation  
Precipitation 0.00 in 0.11 in 2.07 in (1982)
Month to date precipitation 0.00 1.17  
Year to date precipitation 46.71 37.04  
Sea Level Pressure  
Sea Level Pressure 30.12 in    
Wind  
Wind Speed 1 mph ()    
Max Wind Speed 10 mph    
Max Gust Speed 12 mph    
Visibility 9.2 miles    
Events Thunderstorm    
T = Trace of Precipitation, MM = Missing Value Source: Averaged Metar Reports

Daily Weather History Graph

Daily Weather History Graph

Search for Another Location

Airport or City:

Astronomy

Sep. 12, 2019 Rise Set
Actual Time 6:35 AM CDT 7:07 PM CDT
Civil Twilight 6:10 AM CDT 7:33 PM CDT
Nautical Twilight 5:40 AM CDT 8:03 PM CDT
Astronomical Twilight 5:09 AM CDT 8:33 PM CDT
Moon 6:47 PM CDT (9/12) 5:01 AM CDT (9/12)
Length of Visible Light 13h 22m
Length of Day
12h 31m
Waxing Gibbous, 98% of the Moon is Illuminated
Sep 12
Waxing Gibbous
Sep 13
Full
Sep 21
Last Quarter
Sep 28
New
Oct 5
First Quarter

Hourly Weather History & Observations

Time (CDT) Temp. Heat Index Dew Point Humidity Pressure Visibility Wind Dir Wind Speed Gust Speed Precip Events Conditions
12:53 AM 73.0 °F - 71.1 °F 93% 30.11 in 10.0 mi Calm Calm - N/A   Clear
1:53 AM 73.0 °F - 70.0 °F 90% 30.10 in 10.0 mi Calm Calm - N/A   Clear
2:53 AM 73.9 °F - 71.1 °F 91% 30.09 in 10.0 mi SSW 4.6 mph - N/A   Clear
3:53 AM 71.1 °F - 69.1 °F 93% 30.10 in 9.0 mi Calm Calm - N/A   Clear
4:53 AM 70.0 °F - 68.0 °F 93% 30.12 in 10.0 mi Calm Calm - N/A   Clear
5:53 AM 69.1 °F - 68.0 °F 96% 30.14 in 5.0 mi Calm Calm - N/A   Clear
6:53 AM 69.1 °F - 68.0 °F 96% 30.15 in 3.0 mi Calm Calm - N/A   Clear
7:53 AM 73.9 °F - 71.1 °F 91% 30.17 in 9.0 mi Calm Calm - N/A   Clear
8:53 AM 80.1 °F 83.8 °F 72.0 °F 76% 30.17 in 10.0 mi Calm Calm - N/A   Clear
9:53 AM 84.9 °F 91.4 °F 73.0 °F 67% 30.18 in 10.0 mi Calm Calm - N/A   Clear
10:53 AM 89.1 °F 97.0 °F 73.0 °F 59% 30.17 in 10.0 mi Variable 3.5 mph - N/A   Clear
11:53 AM 90.0 °F 96.9 °F 72.0 °F 55% 30.16 in 10.0 mi Calm Calm - N/A   Mostly Cloudy
12:53 PM 91.9 °F 99.5 °F 72.0 °F 52% 30.14 in 10.0 mi NNE 3.5 mph - N/A   Scattered Clouds
1:53 PM 93.0 °F 100.1 °F 71.1 °F 49% 30.12 in 10.0 mi Variable 3.5 mph - N/A   Scattered Clouds
2:53 PM 93.0 °F 99.0 °F 70.0 °F 47% 30.10 in 10.0 mi Calm Calm - N/A   Overcast
3:53 PM 93.9 °F 100.8 °F 71.1 °F 47% 30.09 in 10.0 mi WSW 8.1 mph - N/A   Partly Cloudy
4:53 PM 93.0 °F 100.7 °F 72.0 °F 50% 30.07 in 10.0 mi West 8.1 mph - N/A   Clear
5:50 PM 91.4 °F 98.4 °F 71.6 °F 52% 30.09 in 10.0 mi WSW 6.9 mph - N/A Thunderstorm Clear
5:53 PM 91.9 °F 98.4 °F 71.1 °F 50% 30.08 in 10.0 mi WSW 5.8 mph - N/A Thunderstorm Clear
6:16 PM 91.0 °F 98.2 °F 72.0 °F 53% 30.09 in 10.0 mi SW 3.5 mph - N/A   Clear
6:53 PM 84.9 °F 92.1 °F 73.9 °F 69% 30.07 in 10.0 mi Calm Calm - N/A   Clear
7:53 PM 80.1 °F 84.5 °F 73.9 °F 81% 30.08 in 10.0 mi Calm Calm - N/A   Clear
8:53 PM 77.0 °F - 73.9 °F 90% 30.08 in 10.0 mi SSW 4.6 mph - N/A   Clear
9:53 PM 77.0 °F - 73.9 °F 90% 30.10 in 9.0 mi SSW 3.5 mph - N/A   Clear
10:53 PM 75.0 °F - 73.0 °F 94% 30.11 in 8.0 mi Calm Calm - N/A   Clear
11:53 PM 73.0 °F - 72.0 °F 96% 30.11 in 6.0 mi Calm Calm - N/A   Clear